DELTA 1 DEB, 40752

Orbit data source: Space-Track

DELTA 1 DEB, 40752 is space debris in LEO originally from a launch on Thu, 29 Jul 1976 UTC launched from the Air Force Western Test Range (AFWTR). Debris objects in space refer to the collection of defunct objects orbiting the Earth. Examples of debris include non-operational satellites, rocket bodies, and fragments generated from explosions, collisions, or faulty payload assembly.

Loading next visibility...
Identifier
40752, 1976-077FV
Orbit
LEO
Last TLE update
14 hours ago
Origin
Manufacturer
Unknown
Mission
Spacecraft
Bus & Motor
Unknown
Mass
Unknown
Launch date (UTC)
1976-07-29 (49 years ago)
Launch vehicle
Unknown
Launch site
Air Force Western Test Range (AFWTR)
Object type
Payload
Rocket body
Debris
Shape & HBR
Unknown
Radar Cross Section
Small (<0.1 m²)

Expand to show TLE details & history

TLE from 14 hours ago
0 DELTA 1 DEB
1 40752U 76077FV  25186.33883148  .00000131  00000-0  30285-2 0  9990
2 40752 102.2210 315.1954 0563332 287.9075  93.5709 11.37626143482557
Epoch: 2025-07-05T08:07Z
TLE epoch observation values (Epoch: 2025-07-05T08:07:55.039Z)
Latitude
27.22975°
Longitude
-96.73184°
Altitude
2,031.216 km
Speed
6.865 km/s
True Right ascension
20h 35m 18s
True Declination
27° 06' 40"
Sunlit
Object was in daylight at epoch
Visualization orbit readout
Latitude
-53.30822°
Longitude
-73.05754°
Altitude
1,543.567 km
Speed
7.284 km/s
Apparent Right ascension
22h 16m 34s
Apparent Declination
-47° 10' 54"
Sunlit
Object is in full shadow
Visualization observer readout
Local Sidereal Time
10:22:56
Azimuth
171.52° S
Elevation
-82.644°
Doppler factor
1
Orbital elements
Apogee altitude
2,440.824 km
Perigee altitude
1,500.211 km
Semi-major axis
8,348.654 km
Eccentricity
0.05633
Inclination
102.221°
RAAN
315.1954°
Arg. of periapsis
287.9075°
True anomaly
Unknown
Mean anomaly
93.5709°
Eccentric anomaly
Unknown
Mean motion
2.84524 °/min
Orbital period
126.53 mins
BSTAR
0.0030285
Loading maneuver chart data...
Loading SW <> Apogee altitude chart data...
Loading historical data...
Loading historical data...
Loading historical data...
Loading historical data...
Loading historical data...
Loading historical data...
Loading historical data...

DELTA 1 DEB Visibility forecast

Observer location: undefined°, undefined°

Span
Click to sort rows by Start time (UTC) header in descending order
Start Az.
Max El. time (UTC)
Max El. Az.
Max El.
End time (UTC)
End Az.
20 mins2025-07-05 23:22:45.276Z4.905° NNE2025-07-05 23:32:45.276Z310.888° NW30.197°2025-07-05 23:42:45.276Z251.997° W
4 mins2025-07-06 01:30:45.276Z341.658° N2025-07-06 01:32:45.276Z332.275° NNW11.107°2025-07-06 01:34:45.276Z322.972° NNW
11 mins2025-07-06 05:21:45.276Z62.335° ENE2025-07-06 05:26:45.276Z35.515° NE15.92°2025-07-06 05:32:45.276Z5.277° NNE
20 mins2025-07-06 07:18:45.276Z127.913° SE2025-07-06 07:27:45.276Z53.275° ENE38.612°2025-07-06 07:38:45.276Z349.425° N
20 mins2025-07-06 09:22:45.276Z195.986° SSW2025-07-06 09:30:45.276Z257.006° W35.742°2025-07-06 09:42:45.276Z333.013° NNW
21 mins2025-07-06 20:33:45.276Z29.954° NE2025-07-06 20:44:45.276Z104.717° ESE37.433°2025-07-06 20:54:45.276Z170.16° S
|